Weather Roundup
Issued by NWS Corpus Christi, TX

Home | Current Version | Previous Version | Text Only | Print | Product List | Glossary On
Versions: 1 2 3 4 5 6 7 8 9 10 11 12 13 14 15 16 17 18 19 20 21 22 23 24 25 26 27 28 29 30 31 32 33 34 35 36 37 38 39 40 41 42 43 44 45 46 47 48 49 50
000
ASUS44 KCRP 021910
HRRCRP

SOUTH TEXAS REGIONAL WEATHER ROUNDUP
NATIONAL WEATHER SERVICE CORPUS CHRISTI TX
100 PM CST MON MAR 02 2015


TXZ229>244-022000-
...CORPUS CHRISTI AREA OBSERVATIONS...

CITY           SKY/WX    TMP DP  RH WIND       PRES   REMARKS
CORPUS CHRISTI DRZL/FOG  51  49  92 N8        30.25F VSB 3/4
NAS CORPUS CHR CLOUDY    51  51 100 N9        30.24F FOG
ROCKPORT       CLOUDY    54  49  83 N8        30.25F HAZE
KINGSVILLE NAS DRZL/FOG  50  50 100 N7        30.25F VSB 3/4
ALICE          CLOUDY    50  47  89 N6        30.26F FOG
FALFURRIAS     CLOUDY    50  48  93 N6        30.25F
$$

...VICTORIA AREA OBSERVATIONS...

CITY           SKY/WX    TMP DP  RH WIND       PRES   REMARKS
VICTORIA       CLOUDY    52  48  86 NE9       30.26F
BEEVILLE       CLOUDY    47  47 100 NE9       30.26F FOG
PLEASANTON     CLOUDY    46  44  93 NE9       30.28F FOG
SAN ANTONIO    CLOUDY    48  43  82 N8        30.26F
$$

...LAREDO AREA OBSERVATIONS...

CITY           SKY/WX    TMP DP  RH WIND       PRES   REMARKS
LAREDO         LGT RAIN  48  46  93 N6        30.28F FOG
COTULLA        CLOUDY    48  44  86 NE8       30.27F
DEL RIO        CLOUDY    48  41  76 N6        30.26F
MCALLEN        CLOUDY    54  51  90 N6        30.24F FOG
HEBBRONVILLE   HVY RAIN N/A N/A N/A N3        30.25F
$$

...OTHER TEXAS OBSERVATIONS...

CITY           SKY/WX    TMP DP  RH WIND       PRES   REMARKS
BROWNSVILLE    CLOUDY    57  56  96 N10       30.21F FOG
HOUSTON        CLOUDY    56  52  86 NE5       30.25F FOG
COL. STATION   CLOUDY    44  42  93 N8        30.28F FOG
AUSTIN         CLOUDY    43  40  89 N12       30.29F
WACO           CLOUDY    39  37  92 N9        30.31F FOG
FORT WORTH     CLOUDY    38  35  89 N5        30.32F FOG
WICHITA FALLS  CLOUDY    34  28  79 W5        30.34F
LUBBOCK        FOG       30  29  96 SE8       30.20F VSB 1/4
EL PASO        LGT RAIN  50  40  68 S7        30.05F
$$

...MARINE OBSERVATIONS...

STATION/POSITION TIME  SKY/WX   TEMP    WIND        PRES    VSBY  WAVE   SWELL
                                AIR SEA DIR/SP/G                  HT/PER HT/PER
                 (UTC)          (F)     (DEG/KT/KT) (MB)    (MI)  (FT/S) (FT/S)
PORT ARANSAS     1900            51 55  360/ 10/ 13 1024.0F
BUOY 90 E PORT A 1900            62 67   30/ 12/ 14 1023.5F         4/ 8   3/ 8
BUOY 45 SE BAFFI 1900            63 66   10/ 14/ 16 1022.6F         4/ 6   2/ 7
BUOY 200 E PT IS 1900            72 72   90/  6/  6 1022.7F         3/ 7   3/ 7
BUOY 15 E GALVES 1900            55 58   20/ 10/ 12 1023.6F         2/ 6   2/ 6
$$


USA.gov is the U.S. government's official web portal to all federal, state and local government web resources and services.